When you browse on this site, cookies collect data to enhance your experience and personalize the content and advertising you see.
Visit our Privacy Policy to learn more. By continuing to use the site, you agree to this use of cookies and data.
  • în România
  • Lista ţărilor
  • Pe 7 zile
  • Temperatura apei
  • Hartă satelitară
  • Meteo pe hartă
  • Widget-uri
  • user-avatar
    Intrare

    Meteo pe oră la Glew

    Astăzi, 22 Februarie, Vineri

    Timp Temperatura Precipitaţii Vânt Presiune Umiditate
    00:00 +5°C° 0.4 mm 5 m/s 744 mmHg 86%
    01:00 +4°C° 0 mm 4 m/s 744 mmHg 87%
    02:00 +4°C° 0.6 mm 4 m/s 744 mmHg 87%
    03:00 +3°C° 0.6 mm 5 m/s 743 mmHg 88%
    04:00 +3°C° 0.6 mm 5 m/s 743 mmHg 89%
    05:00 +2°C° 0.7 mm 6 m/s 744 mmHg 87%
    06:00 0°C° 0.7 mm 7 m/s 745 mmHg 85%
    07:00 -2°C° 0 mm 7 m/s 746 mmHg 81%
    08:00 -3°C° 0.1 mm 7 m/s 748 mmHg 75%
    09:00 -3°C° 0.1 mm 7 m/s 749 mmHg 70%
    10:00 -4°C° 0.1 mm 7 m/s 750 mmHg 65%
    11:00 -4°C° 0 mm 7 m/s 751 mmHg 59%
    12:00 -4°C° 0 mm 7 m/s 752 mmHg 52%
    13:00 -4°C° 0 mm 6 m/s 753 mmHg 45%
    14:00 -4°C° 0 mm 6 m/s 754 mmHg 45%
    15:00 -4°C° 0 mm 6 m/s 754 mmHg 44%
    16:00 -5°C° 0 mm 6 m/s 754 mmHg 44%
    17:00 -5°C° 0 mm 6 m/s 755 mmHg 45%
    18:00 -6°C° 0 mm 6 m/s 756 mmHg 46%
    19:00 -6°C° 0 mm 5 m/s 757 mmHg 47%
    20:00 -6°C° 0 mm 5 m/s 757 mmHg 45%
    21:00 -6°C° 0 mm 5 m/s 758 mmHg 42%
    22:00 -6°C° 0 mm 5 m/s 758 mmHg 40%
    23:00 -6°C° 0 mm 5 m/s 759 mmHg 40%

    Mâine, 23 Februarie, Sâmbătă

    Timp Temperatura Precipitaţii Vânt Presiune Umiditate
    00:00 -7°C° 0 mm 5 m/s 759 mmHg 40%
    01:00 -7°C° 0 mm 4 m/s 759 mmHg 41%
    02:00 -7°C° 0 mm 4 m/s 760 mmHg 42%
    03:00 -7°C° 0 mm 4 m/s 760 mmHg 44%
    04:00 -6°C° 0 mm 3 m/s 760 mmHg 45%
    05:00 -6°C° 0 mm 3 m/s 760 mmHg 47%
    06:00 -6°C° 0 mm 3 m/s 760 mmHg 49%
    07:00 -6°C° 0 mm 3 m/s 761 mmHg 51%
    08:00 -6°C° 0 mm 3 m/s 761 mmHg 49%
    09:00 -5°C° 0 mm 3 m/s 761 mmHg 47%
    10:00 -5°C° 0 mm 3 m/s 761 mmHg 45%
    11:00 -4°C° 0 mm 3 m/s 761 mmHg 42%
    12:00 -4°C° 0 mm 3 m/s 761 mmHg 40%
    13:00 -2°C° 0 mm 3 m/s 761 mmHg 37%
    14:00 -2°C° 0 mm 2 m/s 761 mmHg 37%
    15:00 -2°C° 0 mm 2 m/s 760 mmHg 38%
    16:00 -2°C° 0 mm 2 m/s 760 mmHg 38%
    17:00 -3°C° 0 mm 2 m/s 760 mmHg 41%
    18:00 -1°C° 0 mm 1 m/s 760 mmHg 44%
    19:00 -2°C° 0 mm 1 m/s 760 mmHg 47%
    20:00 -2°C° 0 mm 1 m/s 760 mmHg 48%
    21:00 -2°C° 0 mm 1 m/s 760 mmHg 48%
    22:00 -2°C° 0 mm 1 m/s 760 mmHg 49%
    23:00 -2°C° 0 mm 1 m/s 760 mmHg 49%

    Poimâine, 24 Februarie, Duminică

    Timp Temperatura Precipitaţii Vânt Presiune Umiditate
    00:00 -2°C° 0 mm 1 m/s 760 mmHg 50%
    01:00 -2°C° 0 mm 1 m/s 760 mmHg 50%
    02:00 -2°C° 0 mm 1 m/s 759 mmHg 49%
    03:00 -3°C° 0 mm 0 m/s 759 mmHg 48%
    04:00 -3°C° 0 mm 0 m/s 759 mmHg 47%
    05:00 -2°C° 0 mm 1 m/s 759 mmHg 45%
    06:00 -1°C° 0 mm 1 m/s 758 mmHg 43%
    07:00 -1°C° 0 mm 1 m/s 758 mmHg 41%
    08:00 0°C° 0 mm 1 m/s 758 mmHg 37%
    09:00 -1°C° 0 mm 2 m/s 758 mmHg 34%
    10:00 +1°C° 0 mm 2 m/s 758 mmHg 30%
    11:00 +2°C° 0 mm 2 m/s 758 mmHg 28%
    12:00 +2°C° 0 mm 3 m/s 757 mmHg 26%
    13:00 +3°C° 0 mm 3 m/s 757 mmHg 24%
    14:00 +3°C° 0 mm 3 m/s 757 mmHg 28%
    15:00 +3°C° 0 mm 3 m/s 756 mmHg 32%
    16:00 +3°C° 0 mm 2 m/s 756 mmHg 36%
    17:00 +2°C° 0 mm 2 m/s 756 mmHg 39%
    18:00 0°C° 0 mm 3 m/s 756 mmHg 42%
    19:00 -1°C° 0 mm 3 m/s 756 mmHg 45%
    20:00 -1°C° 0 mm 3 m/s 757 mmHg 46%
    21:00 -1°C° 0 mm 3 m/s 757 mmHg 47%
    22:00 -1°C° 0 mm 3 m/s 757 mmHg 48%
    23:00 -1°C° 0 mm 3 m/s 757 mmHg 49%

    25 Februarie, Luni

    Timp Temperatura Precipitaţii Vânt Presiune Umiditate
    00:00 -1°C° 0 mm 3 m/s 757 mmHg 51%
    01:00 -1°C° 0 mm 3 m/s 757 mmHg 52%
    02:00 -1°C° 0 mm 3 m/s 757 mmHg 54%
    03:00 -1°C° 0 mm 3 m/s 756 mmHg 56%
    04:00 -1°C° 0 mm 3 m/s 756 mmHg 58%
    05:00 -1°C° 0 mm 3 m/s 756 mmHg 61%
    06:00 -1°C° 0 mm 3 m/s 756 mmHg 63%
    07:00 -1°C° 0 mm 3 m/s 756 mmHg 66%
    08:00 -1°C° 0 mm 4 m/s 756 mmHg 65%
    09:00 0°C° 0 mm 4 m/s 756 mmHg 63%
    10:00 +3°C° 0 mm 4 m/s 756 mmHg 62%
    11:00 +4°C° 0 mm 4 m/s 756 mmHg 63%
    12:00 +5°C° 0 mm 4 m/s 756 mmHg 64%
    13:00 +6°C° 0 mm 4 m/s 756 mmHg 65%
    14:00 +7°C° 0 mm 3 m/s 756 mmHg 68%
    15:00 +5°C° 0 mm 3 m/s 756 mmHg 71%
    16:00 +5°C° 0 mm 3 m/s 755 mmHg 74%
    17:00 +4°C° 0 mm 3 m/s 755 mmHg 79%
    18:00 +3°C° 0 mm 3 m/s 755 mmHg 84%
    19:00 +1°C° 0 mm 3 m/s 755 mmHg 89%
    20:00 +1°C° 0 mm 3 m/s 755 mmHg 90%
    21:00 +1°C° 0 mm 3 m/s 755 mmHg 90%
    22:00 +1°C° 0 mm 3 m/s 755 mmHg 91%
    23:00 +1°C° 0 mm 3 m/s 755 mmHg 91%

    26 Februarie, Marţi

    Timp Temperatura Precipitaţii Vânt Presiune Umiditate
    00:00 -1°C° 0 mm 4 m/s 755 mmHg 91%
    01:00 -1°C° 0 mm 4 m/s 754 mmHg 92%
    02:00 -1°C° 0 mm 4 m/s 754 mmHg 92%
    03:00 -1°C° 0 mm 4 m/s 754 mmHg 92%
    04:00 -1°C° 0 mm 5 m/s 753 mmHg 93%
    05:00 0°C° 0 mm 5 m/s 753 mmHg 92%
    06:00 0°C° 0 mm 5 m/s 753 mmHg 91%
    07:00 0°C° 0 mm 5 m/s 752 mmHg 91%
    08:00 +1°C° 0 mm 5 m/s 752 mmHg 82%
    09:00 +2°C° 0 mm 6 m/s 752 mmHg 74%
    10:00 +4°C° 0 mm 6 m/s 752 mmHg 65%
    11:00 +5°C° 0 mm 6 m/s 751 mmHg 60%
    12:00 +6°C° 0 mm 7 m/s 751 mmHg 55%
    13:00 +8°C° 0 mm 7 m/s 750 mmHg 50%
    14:00 +8°C° 0 mm 7 m/s 750 mmHg 52%
    15:00 +8°C° 0 mm 6 m/s 750 mmHg 53%
    16:00 +7°C° 0 mm 6 m/s 750 mmHg 54%
    17:00 +7°C° 0 mm 5 m/s 750 mmHg 58%
    18:00 +6°C° 0 mm 5 m/s 750 mmHg 63%
    19:00 +5°C° 0 mm 4 m/s 751 mmHg 67%
    20:00 +5°C° 0 mm 4 m/s 751 mmHg 72%
    21:00 +4°C° 0 mm 3 m/s 751 mmHg 77%
    22:00 +3°C° 0 mm 3 m/s 751 mmHg 82%
    23:00 +3°C° 0 mm 3 m/s 751 mmHg 85%

    27 Februarie, Miercuri

    Timp Temperatura Precipitaţii Vânt Presiune Umiditate
    00:00 +2°C° 0 mm 3 m/s 751 mmHg 88%
    01:00 +2°C° 0 mm 2 m/s 751 mmHg 91%
    02:00 +2°C° 0 mm 2 m/s 751 mmHg 91%
    03:00 +1°C° 0 mm 3 m/s 751 mmHg 92%
    04:00 0°C° 0 mm 3 m/s 751 mmHg 92%
    05:00 0°C° 0 mm 3 m/s 751 mmHg 92%
    06:00 +1°C° 0 mm 2 m/s 751 mmHg 92%
    07:00 +1°C° 0 mm 2 m/s 751 mmHg 92%
    08:00 +1°C° 0 mm 3 m/s 751 mmHg 85%
    09:00 +3°C° 0 mm 3 m/s 751 mmHg 77%
    10:00 +5°C° 0 mm 3 m/s 751 mmHg 70%
    11:00 +6°C° 0 mm 4 m/s 750 mmHg 66%
    12:00 +7°C° 0 mm 4 m/s 750 mmHg 62%
    13:00 +10°C° 0 mm 4 m/s 749 mmHg 58%
    14:00 +10°C° 0 mm 4 m/s 748 mmHg 59%
    15:00 +10°C° 0 mm 4 m/s 748 mmHg 60%
    16:00 +10°C° 0 mm 4 m/s 747 mmHg 62%
    17:00 +8°C° 0 mm 4 m/s 747 mmHg 65%
    18:00 +7°C° 0 mm 4 m/s 746 mmHg 68%
    19:00 +6°C° 0 mm 4 m/s 746 mmHg 71%
    20:00 +5°C° 0 mm 4 m/s 746 mmHg 71%
    21:00 +5°C° 0 mm 4 m/s 745 mmHg 70%
    22:00 +5°C° 0 mm 4 m/s 745 mmHg 70%
    23:00 +5°C° 0 mm 4 m/s 744 mmHg 70%
    Arată mai mult